Wind_Speed
21 21 21 21 21 22 23 24 27 28 28 30 30 30 31 30 29 28 27 27 28 29 31 32 32 31 31 31 33 33 32 31 30 30 29 27 27 28 29 27 26 26 24 22 20 19 20 20 18 16 15 13 12 10 9 8 6 5 5 5 4 4 5 5 7 9 9 8 10 13 15 15 16 18 19 21 22 23 24 24 24 25 26 27 28
21 20 20 20 21 22 24 24 27 30 30 29 29 30 30 29 29 28 27 27 27 28 30 31 31 30 31 32 32 32 31 31 30 29 28 28 27 27 27 26 26 25 24 22 21 21 21 20 18 16 14 12 11 9 8 7 6 4 3 2 4 5 6 7 7 9 10 10 10 13 14 15 17 18 19 20 21 22 24 25 26 27 28 28 28
20 19 19 19 20 21 24 25 25 27 29 29 28 28 28 28 28 28 28 28 28 29 29 29 29 29 30 31 31 31 31 30 28 28 28 28 28 27 26 26 26 26 24 24 23 23 22 20 18 16 13 12 11 9 8 6 3 1 2 4 6 7 8 9 9 10 11 12 12 13 15 17 18 18 18 19 21 22 24 26 27 28 28 29 29
20 20 20 20 21 21 24 27 26 26 28 29 28 27 27 28 29 29 28 28 28 29 29 28 27 27 29 30 30 30 29 29 28 26 27 28 28 28 27 27 27 26 25 26 25 24 22 19 17 16 14 13 11 9 7 4 1 2 4 6 8 8 9 11 11 11 12 14 15 16 16 18 19 18 17 20 23 24 25 26 27 27 28 29 30
21 21 22 22 22 23 25 28 29 28 28 29 28 27 27 28 28 28 28 28 28 28 29 28 27 27 28 29 30 30 29 29 28 26 26 27 28 28 29 28 27 26 26 26 25 24 21 19 18 16 15 13 12 9 6 4 1 2 5 7 9 9 9 11 13 13 13 15 18 18 18 19 20 20 20 22 24 24 25 26 26 27 29 29 30
22 22 23 23 23 24 25 27 30 30 29 29 29 28 28 28 28 27 27 27 28 28 28 28 27 27 28 29 31 31 30 29 28 27 26 27 27 28 29 28 27 26 26 25 24 21 19 18 17 17 16 14 12 9 7 5 4 4 5 7 9 10 11 12 13 13 14 16 18 20 21 20 20 21 22 22 22 23 25 26 26 26 28 29 29
22 23 23 24 24 25 25 25 27 29 29 29 29 29 29 28 27 28 28 28 28 29 28 27 27 27 28 29 31 32 31 30 29 28 28 28 29 29 29 28 27 26 25 24 21 19 18 17 18 17 16 13 11 8 7 6 6 7 8 9 10 12 13 13 12 13 14 16 18 21 22 21 19 20 22 21 22 25 26 27 28 29 27 26 27
23 24 24 25 25 26 25 25 25 27 27 28 28 29 29 28 28 27 27 27 28 28 27 27 27 27 28 29 30 31 30 29 29 30 30 30 30 30 30 29 28 26 24 22 20 19 18 18 18 17 14 11 9 6 4 4 6 8 10 12 13 14 15 14 13 13 15 17 19 22 22 20 19 20 22 20 21 27 28 25 26 29 27 24 25
23 24 25 26 27 25 25 25 25 26 27 26 27 28 28 28 27 27 27 27 26 26 26 26 25 26 26 27 28 29 28 29 31 32 32 33 32 31 31 30 28 27 25 23 21 20 20 20 18 16 13 10 7 5 2 1 4 7 10 13 15 16 16 16 15 14 15 18 21 21 20 19 19 20 22 22 23 28 28 23 24 28 27 26 28
24 24 25 26 26 24 24 25 25 26 27 28 28 27 26 26 26 26 26 26 25 25 25 25 25 26 26 26 28 28 29 30 31 33 34 35 34 33 31 30 29 28 27 25 23 22 21 21 19 15 12 9 7 5 2 1 3 6 8 11 14 16 17 17 17 17 17 20 22 21 19 20 22 22 24 27 27 27 27 24 24 26 25 24 27
24 24 25 24 23 24 24 25 25 26 27 28 28 27 26 25 25 25 24 24 24 24 24 24 25 26 26 26 28 29 30 30 31 32 33 34 34 34 32 31 30 28 26 25 25 24 23 21 19 15 12 10 8 6 4 3 4 6 9 11 14 16 18 19 20 20 20 22 24 22 20 23 28 28 28 30 30 28 27 26 24 24 23 20 22
24 23 22 22 23 24 25 25 26 26 27 27 27 26 25 25 24 24 23 23 23 23 23 24 24 25 26 26 27 28 29 29 29 30 31 32 33 34 33 32 29 26 25 25 25 25 23 22 19 16 14 12 10 9 8 8 8 10 12 14 16 18 20 21 22 23 23 24 26 26 25 27 32 34 30 29 30 27 25 25 24 23 23 20 22
23 22 21 21 22 24 25 25 26 26 26 26 26 25 25 24 24 24 23 22 22 22 22 22 22 24 25 26 26 27 27 28 29 29 30 31 31 32 31 30 28 26 26 26 25 24 24 22 20 16 13 12 13 14 13 12 12 14 16 19 21 22 23 24 24 26 26 26 27 31 32 30 32 36 33 27 26 26 25 25 25 23 22 22 24
21 20 21 21 21 22 23 24 25 25 25 25 25 24 24 24 24 23 22 22 21 21 22 22 22 23 24 25 25 25 26 27 27 28 30 31 30 29 28 28 28 28 27 26 25 24 22 19 16 13 12 12 15 16 17 17 16 17 20 23 26 27 27 27 27 27 27 27 29 35 38 34 33 36 35 28 26 27 26 26 25 25 25 27 29
20 19 20 20 20 21 23 24 24 24 25 25 24 24 24 23 23 22 22 21 21 21 21 21 22 22 22 23 23 24 25 25 25 26 28 28 27 26 26 27 27 26 26 25 23 20 17 14 11 9 10 13 15 17 19 20 20 21 24 27 30 31 31 31 30 28 27 28 31 35 38 37 35 34 34 31 29 28 26 26 28 28 29 30 32
19 18 18 19 20 20 22 23 23 24 24 24 24 24 23 23 22 22 21 20 19 19 19 20 21 21 21 21 21 22 23 23 22 23 24 25 26 25 24 24 24 24 25 24 20 16 13 11 8 8 11 13 15 17 19 21 23 25 28 31 33 35 36 35 34 32 31 31 33 34 35 36 34 32 32 30 30 29 28 29 31 29 27 26 28
18 18 18 18 19 20 21 23 23 23 24 24 24 23 23 22 22 21 20 20 19 18 18 18 19 19 19 20 20 20 20 19 19 20 21 24 25 24 22 22 22 22 23 22 18 13 10 8 8 10 11 13 15 18 19 22 24 25 28 32 34 36 36 35 34 34 33 32 33 33 33 33 31 30 30 30 29 30 30 30 29 27 24 20 21
17 17 17 17 18 18 20 22 23 23 24 25 24 23 22 22 21 20 20 20 19 18 18 17 17 17 18 19 19 20 18 17 17 18 20 21 22 22 22 21 20 20 20 19 15 11 9 10 11 12 13 14 16 18 20 22 24 26 28 30 33 34 33 31 30 31 30 30 31 31 30 31 30 30 30 30 29 28 27 28 29 28 24 21 21
14 15 16 16 17 18 19 22 23 24 24 24 23 22 22 21 20 19 18 18 19 18 17 16 16 17 17 17 18 18 17 17 17 19 20 20 20 20 20 20 18 18 18 16 13 11 12 13 14 15 15 16 17 19 21 22 24 25 25 26 29 31 29 27 28 29 29 29 29 29 30 31 30 30 31 32 31 29 27 28 29 28 25 24 24
13 14 15 15 16 17 19 21 23 23 23 23 22 21 21 20 19 19 18 18 18 17 16 16 16 16 16 16 16 15 15 16 18 19 20 20 19 19 19 19 18 18 18 16 15 14 15 16 16 17 17 18 18 19 19 20 21 21 21 22 26 28 27 27 27 27 29 31 31 31 32 31 30 30 31 31 31 29 28 28 28 28 27 25 25
13 13 15 15 16 17 18 21 22 22 22 22 21 20 20 20 19 19 19 18 17 17 16 16 16 16 15 14 14 14 15 16 18 18 18 18 19 19 19 19 19 19 18 17 16 16 16 17 18 18 18 18 17 16 16 15 15 17 18 20 22 24 25 27 28 27 27 29 29 28 28 27 26 26 27 28 28 28 27 27 26 25 25 24 24
14 14 15 16 17 18 19 21 21 21 21 21 20 20 19 19 19 20 19 19 19 18 17 17 16 16 15 14 14 14 15 16 17 18 18 18 18 20 20 20 20 19 17 16 15 15 15 16 17 17 17 16 14 12 11 11 12 15 17 18 19 20 21 23 25 25 24 25 24 23 23 22 22 22 23 23 23 23 22 22 21 20 21 23 23
15 16 17 18 19 20 20 20 21 20 20 20 20 21 21 20 20 20 20 20 20 19 18 18 17 16 16 16 16 16 15 16 16 18 18 18 18 18 19 19 18 17 16 14 14 13 13 14 15 14 13 12 11 10 10 10 11 13 14 14 16 18 20 22 24 24 24 24 23 22 22 21 21 20 20 19 18 19 19 19 19 19 19 21 21
17 18 19 20 21 21 20 21 21 21 21 21 21 22 23 22 21 21 21 22 21 20 19 19 18 17 17 17 16 16 17 17 17 17 18 17 16 15 15 15 14 14 14 13 12 12 11 10 10 10 10 10 10 10 10 11 11 11 12 15 18 20 20 21 21 20 20 20 19 19 19 18 18 19 19 21 24 26 26 24 23 21 20 21 22
20 21 22 22 22 22 21 21 21 21 22 22 23 24 24 23 23 22 22 22 22 21 20 19 18 17 17 17 17 17 18 18 18 18 17 17 15 13 12 12 11 11 11 10 9 8 7 7 8 9 9 10 10 11 11 11 11 11 12 13 14 13 13 12 13 13 14 15 16 17 17 18 19 21 23 26 27 26 26 25 24 22 22 23 24
23 23 23 23 22 22 22 21 21 21 22 22 23 24 24 24 24 23 22 22 21 20 20 17 15 14 15 14 15 16 18 18 19 18 18 17 16 15 12 11 11 11 11 10 9 8 8 8 9 9 10 10 10 10 9 8 8 7 7 7 7 8 8 9 10 11 12 13 15 16 17 18 20 22 22 23 22 22 22 24 24 23 22 22 24
25 24 23 24 23 23 23 23 22 21 21 21 23 23 23 24 25 22 20 20 18 16 16 15 13 12 12 11 11 14 17 18 18 18 17 17 16 16 14 13 12 13 12 11 10 10 10 10 9 9 8 7 7 5 4 4 4 4 4 5 6 7 8 9 10 11 13 14 15 16 18 19 20 21 21 21 22 22 23 23 24 24 22 22 23
25 24 24 24 23 23 23 23 22 21 20 20 21 20 19 21 22 19 17 17 15 13 14 14 12 12 11 11 12 13 15 17 18 17 17 16 15 14 14 13 12 11 10 9 8 7 7 6 5 4 3 2 2 2 2 2 3 3 4 5 6 7 8 9 10 11 11 13 14 16 18 19 19 19 20 20 21 21 21 22 22 22 22 21 21
25 24 23 23 23 24 24 23 21 21 21 20 20 18 17 19 19 15 14 14 13 12 13 14 13 12 12 13 14 14 14 15 16 15 13 13 12 11 11 10 9 8 7 6 5 3 2 1 1 1 1 0 0 1 2 2 3 3 5 5 6 7 7 7 7 8 9 12 15 16 16 17 17 18 18 19 19 19 20 20 21 22 22 21 20
25 23 22 24 24 25 24 23 23 24 24 22 21 18 15 15 15 14 13 13 11 12 13 14 14 14 13 13 13 13 13 13 13 12 11 11 10 10 9 9 8 7 6 5 4 4 4 3 2 2 2 2 2 2 2 2 3 3 4 4 4 5 5 5 6 9 13 15 15 14 14 15 16 16 17 18 19 19 19 19 19 20 21 19 19
26 23 23 25 25 24 25 25 25 25 24 23 22 21 18 15 11 10 11 11 10 10 10 11 12 13 13 13 12 10 10 11 11 12 12 12 11 11 10 9 8 7 7 6 5 5 5 4 3 3 3 2 2 3 3 3 2 3 3 4 3 4 4 5 8 12 14 13 12 11 12 13 14 14 15 16 17 18 18 18 17 17 18 18 18
26 25 25 25 24 24 26 26 26 25 23 22 22 24 23 20 16 13 11 10 10 9 9 10 10 10 10 11 12 11 10 11 12 13 12 12 11 10 9 8 8 7 7 7 5 5 5 5 4 3 3 3 2 3 3 3 3 4 4 4 4 5 6 9 11 12 11 9 9 10 11 11 12 13 14 14 15 16 16 16 16 16 17 17 17
25 25 26 26 25 26 27 26 25 25 24 22 23 24 23 20 18 16 15 13 12 11 11 11 12 12 11 10 11 12 12 12 12 12 12 12 11 11 11 10 9 8 7 7 6 5 5 6 5 4 4 4 3 3 3 4 5 5 6 6 6 7 9 10 11 10 7 7 9 9 10 10 11 12 12 12 13 14 14 14 15 15 15 16 17
26 27 28 28 27 27 27 26 25 25 25 23 23 23 21 20 19 19 20 19 17 15 14 12 11 12 13 12 12 13 14 14 14 14 14 14 13 13 12 11 9 8 8 7 7 6 6 6 6 6 5 5 5 5 5 6 7 7 7 8 8 8 9 9 8 8 8 8 9 8 9 10 10 10 11 12 12 12 13 13 14 14 14 15 16
26 27 27 26 26 26 26 26 26 26 25 24 23 22 21 21 21 21 21 23 23 21 19 17 14 14 15 16 16 16 17 16 16 16 15 14 13 12 11 9 8 7 7 8 8 8 7 7 7 8 8 7 7 7 8 8 8 8 8 8 8 8 8 8 7 7 9 9 8 8 9 9 9 9 10 11 11 12 12 12 13 13 14 14 15
27 27 26 25 25 26 25 25 26 26 26 25 24 23 23 23 22 21 21 23 24 24 23 21 18 17 17 16 14 15 16 16 15 15 14 12 11 10 10 9 8 7 7 8 9 9 9 9 9 9 9 9 9 9 9 9 9 8 8 8 8 7 7 7 7 8 9 9 8 8 9 9 9 9 9 10 11 11 11 12 12 12 13 13 14
26 27 26 25 25 25 25 25 25 26 26 25 24 24 23 22 21 22 22 22 22 23 23 22 21 20 18 16 14 14 14 14 13 12 12 11 10 10 10 10 9 9 8 8 9 9 9 9 9 9 10 9 9 9 9 9 9 8 7 8 8 7 7 7 7 8 9 10 9 9 9 10 9 9 9 10 11 11 11 11 12 12 12 12 13
24 25 25 25 25 25 25 25 25 25 26 25 24 24 23 21 21 21 21 21 22 23 22 21 21 20 20 18 16 15 14 12 11 10 10 10 10 10 9 9 9 9 9 9 9 9 9 9 9 9 10 10 9 10 9 9 9 8 8 8 8 8 8 8 8 9 10 10 10 9 10 10 9 9 9 10 10 11 11 11 11 11 12 12 12
23 24 24 24 25 25 26 26 26 26 26 25 23 23 22 22 22 21 20 21 23 23 21 19 18 18 20 21 19 16 13 11 10 10 10 9 9 9 9 9 9 9 9 9 9 9 9 9 9 9 10 10 10 10 10 10 9 9 9 9 9 9 9 9 9 9 10 11 11 10 11 11 10 10 10 10 10 10 10 11 11 11 11 12 12
24 24 23 24 24 25 26 26 26 27 26 25 24 24 23 23 23 22 23 25 25 24 22 19 18 18 21 22 19 15 13 11 11 10 10 10 9 9 9 9 9 9 9 9 9 9 9 9 10 10 10 11 11 11 11 10 10 10 10 9 9 10 9 9 10 10 11 12 12 12 12 12 11 11 11 10 10 10 11 11 11 11 11 12 12
24 24 24 23 24 24 25 25 25 26 26 26 25 24 24 23 23 23 25 25 24 23 21 20 19 19 20 19 16 14 13 11 11 11 10 10 9 9 9 10 9 9 9 9 9 9 9 10 10 11 11 12 12 11 11 11 11 11 11 11 11 11 11 11 11 11 11 12 13 13 12 12 11 11 11 11 10 10 11 11 11 11 12 12 12
25 26 25 23 23 24 24 24 24 24 25 25 24 24 24 24 24 24 24 24 23 22 21 20 19 19 18 15 14 14 13 12 11 11 11 10 10 10 10 10 9 9 9 9 9 10 10 11 11 12 12 12 12 12 12 12 12 12 12 12 12 12 12 12 12 12 12 13 14 14 13 12 12 12 12 11 11 11 11 11 11 12 12 12 11
25 26 25 24 24 24 24 24 24 24 24 24 24 24 24 24 24 24 24 24 24 23 22 20 19 18 16 14 13 15 14 13 13 12 11 11 11 10 10 10 10 10 10 10 10 11 11 12 12 12 13 13 13 13 13 13 13 14 14 14 14 14 14 13 13 13 14 14 14 14 14 13 13 13 12 11 11 11 11 12 12 12 12 12 12
25 25 25 24 24 23 23 23 24 24 24 23 23 23 23 23 23 24 24 24 23 22 20 19 19 19 18 15 15 15 15 14 13 12 11 11 11 10 10 10 10 10 10 10 11 11 12 12 13 13 13 13 13 14 14 15 15 15 15 15 16 16 15 14 14 14 15 15 15 15 15 14 14 14 13 11 11 11 12 11 11 11 12 12 12
24 25 25 24 23 23 22 22 22 22 22 22 22 22 22 23 23 24 23 23 22 20 19 18 18 19 18 17 15 15 14 13 12 12 11 11 10 10 10 10 10 10 11 11 12 12 13 13 13 14 14 14 14 14 15 16 16 17 17 17 17 17 16 15 14 15 16 16 16 16 16 16 15 15 14 12 11 12 12 11 11 11 13 13 13
23 24 24 23 23 22 22 22 21 21 21 22 22 22 22 22 22 22 21 20 19 18 17 17 17 17 16 15 14 14 13 12 11 11 10 10 10 10 11 11 11 12 12 13 13 14 14 14 15 15 15 15 15 16 16 17 18 18 18 18 18 18 17 16 16 16 17 17 18 17 17 17 17 16 15 14 13 12 12 12 12 12 13 13 13
21 21 22 22 22 22 22 21 21 21 21 21 22 22 21 20 19 18 17 17 17 16 16 16 16 16 15 15 14 13 12 11 11 10 10 11 11 11 12 12 12 13 13 14 14 15 15 16 16 16 16 17 17 18 18 18 19 19 19 19 19 19 18 17 17 17 18 18 19 18 18 18 18 17 16 15 14 13 12 12 11 11 11 11 12
20 20 21 21 21 22 21 21 20 20 19 19 19 18 18 17 16 15 15 15 15 15 15 15 15 15 15 14 13 12 11 11 11 11 11 11 12 12 12 13 14 15 15 15 16 16 17 17 17 18 19 19 20 20 20 20 20 20 20 20 19 19 18 18 18 19 18 19 19 19 19 19 19 18 17 16 14 13 12 11 11 10 10 11 11
19 20 20 20 20 21 21 20 19 19 18 17 16 15 14 14 14 13 13 13 13 13 14 14 14 14 13 12 12 11 11 11 12 12 12 12 12 13 13 14 15 16 17 17 17 18 18 19 19 20 21 21 21 21 21 21 21 21 21 20 19 19 19 19 20 19 19 19 19 19 20 20 20 19 18 17 15 14 13 12 11 10 10 10 11
18 19 19 20 19 19 19 18 17 16 15 14 13 12 12 12 12 12 12 12 12 12 12 12 12 12 11 11 11 11 11 12 12 13 13 13 13 14 14 15 16 17 18 19 19 19 20 20 21 22 23 23 23 23 23 23 22 22 21 20 19 20 20 20 20 20 19 19 20 20 20 20 20 19 19 17 16 15 14 13 12 12 11 11 11
17 17 18 17 17 16 16 15 14 13 12 11 11 10 10 10 10 10 11 11 11 11 11 10 10 10 10 11 11 11 12 12 13 14 14 14 15 15 16 16 17 18 19 20 21 21 22 22 23 24 24 24 24 24 24 24 23 22 21 20 20 21 21 21 21 20 19 19 20 20 21 21 20 20 19 18 17 16 16 14 13 13 13 12 12
Wind_Direction
200 200 202 206 212 216 218 219 221 223 222 222 222 225 228 230 232 234 234 233 234 234 235 235 234 233 232 230 228 226 225 222 219 217 213 208 209 210 209 207 203 203 202 198 195 194 192 190 186 181 178 176 174 176 177 175 183 191 195 210 231 252 261 259 273 286 283 270 261 260 262 264 264 267 267 267 273 279 282 285 287 289 290 292 293
202 201 202 205 210 216 218 219 224 226 225 224 225 227 228 228 229 231 232 234 237 239 238 236 235 235 232 228 226 225 224 222 217 214 208 204 205 206 206 202 198 198 196 192 187 186 187 186 179 174 174 175 172 171 173 172 177 188 208 249 269 268 260 253 263 280 284 280 272 268 269 270 271 274 273 272 276 279 283 288 291 292 292 294 295
202 202 204 207 212 216 218 219 223 227 226 227 228 228 227 227 228 230 232 235 237 237 237 237 237 235 231 226 223 222 222 220 216 210 205 204 205 205 202 199 198 196 192 187 185 183 183 179 174 172 171 170 169 166 164 164 168 206 299 291 277 267 265 263 262 269 279 282 277 275 277 277 279 280 276 276 281 282 284 289 291 290 292 295 297
200 202 205 210 212 213 217 220 223 226 228 229 228 226 226 228 229 230 231 233 235 236 237 238 236 232 228 224 219 219 220 218 214 209 206 206 207 204 199 197 197 195 191 188 186 183 181 176 171 170 169 166 163 159 153 149 140 328 307 292 285 278 273 273 271 269 273 277 276 277 279 278 278 278 274 277 285 288 289 292 292 290 294 298 298
199 202 206 210 212 214 219 223 224 225 227 229 228 225 226 229 229 229 231 234 236 238 238 237 233 229 227 224 219 217 217 216 213 209 207 207 206 202 198 195 193 191 190 189 186 182 180 176 171 167 165 161 155 154 156 160 192 294 298 292 290 287 280 281 283 279 273 274 277 280 279 276 276 276 277 280 285 288 290 291 290 290 294 298 298
200 203 207 210 214 216 218 221 223 224 226 229 229 226 226 228 229 229 232 236 238 238 237 234 231 229 227 224 220 217 215 215 213 209 207 205 201 197 193 190 188 188 189 187 184 181 177 172 167 163 162 160 159 165 175 185 209 252 282 286 284 283 282 284 287 283 276 276 280 282 282 279 277 278 283 285 284 286 288 289 288 289 291 294 296
202 203 206 209 213 215 215 217 220 221 223 227 229 227 226 229 230 231 233 235 235 236 235 232 230 229 226 223 220 217 215 215 213 209 207 205 200 194 190 187 186 186 186 184 180 177 172 166 161 160 163 167 171 178 187 200 221 241 259 271 276 280 283 283 280 277 276 278 281 283 284 283 278 278 284 284 282 284 285 285 287 291 291 289 291
204 203 205 209 214 216 216 217 219 219 220 223 224 224 225 229 231 231 230 231 233 232 232 230 229 227 225 221 219 217 215 213 212 209 207 204 200 195 190 187 186 185 184 182 177 171 165 160 159 161 167 171 169 169 184 222 245 253 260 266 271 276 279 280 278 275 275 277 280 282 284 284 280 279 283 279 275 282 286 283 284 290 291 287 285
208 205 207 212 215 216 217 217 218 218 217 217 219 220 223 226 227 227 227 229 231 230 229 230 228 224 221 217 214 213 211 211 211 209 206 203 199 196 192 191 189 187 182 177 172 167 161 159 162 165 167 166 160 150 143 246 272 275 275 274 274 275 276 276 274 272 273 275 277 280 282 281 278 279 280 276 274 282 287 282 277 283 287 286 285
213 209 211 215 216 216 217 217 217 217 216 216 218 219 221 223 224 224 226 228 230 230 228 229 227 221 216 213 211 212 212 212 214 213 210 205 201 197 194 191 190 188 181 172 169 167 163 163 165 166 171 176 175 167 158 243 291 293 288 283 282 280 279 277 275 272 271 272 274 277 280 278 277 277 278 281 282 284 283 278 275 281 285 285 287
216 213 214 215 214 214 214 214 214 214 215 216 216 217 218 221 221 221 223 225 227 229 227 226 225 220 215 212 212 214 215 215 216 214 210 207 204 199 194 191 189 185 179 174 171 168 165 166 169 177 189 194 194 199 221 256 282 291 291 291 289 286 282 278 276 275 272 271 275 277 274 275 280 281 280 283 286 283 280 279 277 279 282 281 285
217 214 215 214 211 212 212 211 211 211 211 212 213 213 216 217 217 218 219 222 225 226 225 225 223 219 215 213 215 217 217 217 216 211 207 206 204 200 196 192 187 182 179 179 175 170 169 172 178 188 198 201 208 222 237 254 273 285 291 294 291 289 287 283 280 279 275 273 276 278 274 275 281 285 284 285 288 286 284 283 279 278 279 278 280
215 213 215 214 212 213 212 211 209 207 207 209 210 211 212 213 214 217 219 222 223 223 222 223 221 219 216 215 217 219 219 219 215 211 207 206 204 202 199 194 189 185 183 180 176 174 175 177 182 191 203 214 227 235 240 253 269 280 287 289 288 288 289 288 286 285 281 276 274 278 281 280 280 285 289 289 290 291 290 285 282 280 280 279 280
213 213 214 213 213 213 212 209 208 206 204 206 207 208 210 211 213 216 218 219 220 220 219 219 219 218 216 215 216 218 219 220 216 213 210 207 205 203 200 196 193 190 185 180 179 179 179 182 188 199 216 234 244 245 245 252 264 275 281 284 286 288 288 288 288 288 285 279 275 280 288 287 283 286 291 290 288 290 289 285 284 283 281 280 281
210 212 212 211 211 210 209 207 205 203 202 202 203 204 207 208 210 213 216 217 218 217 217 216 216 216 216 215 215 216 219 219 218 216 213 207 203 200 197 196 194 189 183 181 180 178 179 184 195 214 236 250 256 256 254 255 260 269 276 279 282 285 286 286 286 286 284 283 280 282 289 290 288 288 289 289 288 285 282 282 282 283 282 281 281
207 208 207 207 207 206 206 203 200 199 198 197 198 201 204 205 206 209 210 212 214 214 214 215 214 212 212 213 214 216 220 220 219 218 213 207 203 200 198 195 191 186 183 180 177 176 180 191 211 239 254 261 264 264 261 258 260 266 273 278 281 285 286 287 289 290 289 289 288 287 289 289 288 286 286 287 286 284 284 284 283 281 280 277 277
204 204 202 203 204 203 202 199 196 195 195 194 194 197 199 201 202 204 204 203 205 207 208 209 211 210 209 211 213 215 217 217 215 214 209 205 203 200 198 194 190 186 182 178 177 181 189 209 239 258 268 272 271 267 261 259 263 269 275 280 283 285 288 291 295 297 297 297 296 295 293 291 289 285 283 282 282 283 284 284 283 282 280 273 272
200 199 199 200 198 198 198 197 194 192 192 193 193 194 196 197 199 202 202 200 199 201 203 204 207 208 210 211 213 213 212 209 207 206 204 203 202 199 196 193 189 185 180 179 185 196 210 231 250 265 276 279 275 269 263 262 268 273 277 281 285 287 291 296 299 300 302 301 300 299 298 297 295 292 291 290 291 289 282 277 278 279 276 271 272
194 194 195 195 194 195 195 195 193 191 190 191 192 192 192 194 196 196 196 196 195 198 201 202 202 204 207 210 211 212 210 207 205 204 202 201 201 198 196 193 187 184 184 189 200 213 227 242 255 267 276 280 278 274 270 269 273 279 281 283 284 286 293 299 301 303 304 303 302 300 298 298 297 295 296 298 299 294 283 276 276 274 271 271 274
187 188 190 189 190 192 191 190 190 190 189 188 189 190 189 189 189 187 188 191 193 193 196 198 197 198 201 204 206 208 207 202 202 204 205 203 201 199 197 193 188 187 192 202 214 226 239 250 258 265 273 281 283 281 278 278 282 286 285 281 281 289 299 303 302 303 303 301 299 298 295 294 292 291 292 294 293 289 283 280 278 274 272 273 276
177 179 183 184 184 185 185 187 187 187 187 185 182 184 186 185 183 181 182 184 183 183 186 188 189 190 193 197 199 201 201 198 197 199 202 201 198 196 196 194 193 194 200 210 222 234 246 256 263 270 277 284 287 286 284 285 284 282 280 279 283 292 299 300 298 299 298 297 298 298 296 296 294 292 292 292 290 289 287 283 280 277 274 273 275
171 174 176 176 177 177 178 181 181 180 181 181 177 175 178 179 178 178 177 175 174 175 177 180 182 183 185 191 193 192 194 194 192 192 195 196 194 193 193 194 197 201 207 217 229 241 252 261 270 277 281 284 286 284 281 277 273 272 275 280 287 292 294 293 295 298 298 298 299 300 301 302 302 301 302 300 298 297 292 285 283 282 278 274 274
170 171 170 169 168 170 172 174 175 174 175 176 172 168 169 171 172 173 172 169 169 170 173 177 179 178 180 185 189 190 190 191 192 190 190 192 193 194 196 199 204 210 216 225 236 246 257 267 274 279 280 281 281 277 273 273 273 275 281 286 288 288 289 291 294 296 297 298 299 299 301 302 304 305 307 308 309 309 304 296 293 291 286 282 282
166 163 162 162 162 164 167 168 170 171 170 170 168 164 165 166 166 168 169 168 166 166 169 174 175 175 179 183 188 192 193 193 196 195 195 196 196 198 203 208 213 221 227 234 242 250 259 267 270 273 274 276 277 277 278 280 281 282 286 287 286 287 290 294 295 296 298 299 300 302 304 306 308 309 309 309 310 311 310 308 305 302 298 297 296
158 155 155 156 156 158 160 161 164 166 166 167 165 162 162 162 161 163 166 167 166 165 167 172 174 176 180 185 191 197 199 199 200 200 201 204 203 202 208 213 217 225 231 236 240 241 241 243 252 264 275 281 284 286 287 287 286 287 289 291 294 298 303 306 306 306 306 305 306 307 309 310 311 311 312 313 315 315 316 315 312 309 309 309 307
150 148 149 151 153 153 152 152 156 158 160 163 163 161 161 160 158 160 164 166 167 167 168 170 172 174 181 187 194 200 202 203 204 204 206 209 210 210 210 210 212 215 216 217 218 217 221 235 256 274 284 289 292 295 295 294 296 302 308 313 318 319 318 315 314 312 309 308 308 309 311 313 313 314 317 319 319 318 318 317 313 310 313 315 312
146 145 146 148 150 150 147 146 147 148 151 156 157 157 159 162 160 160 162 164 164 165 167 168 169 172 176 179 187 199 203 204 206 208 209 210 213 213 210 207 210 212 212 216 223 228 237 251 270 284 291 298 307 315 320 320 321 327 329 325 321 319 317 313 310 309 308 309 311 312 312 313 315 316 317 317 316 314 316 318 315 311 314 317 313
145 144 145 146 146 146 146 144 143 143 145 149 150 150 155 161 161 159 162 166 164 164 169 173 173 173 172 172 178 189 199 204 207 208 208 207 207 207 205 206 209 209 209 215 224 234 248 261 277 294 306 327 349 354 347 328 318 313 314 315 313 312 311 306 305 307 308 308 309 310 310 310 311 312 313 313 313 315 317 320 318 314 315 317 313
145 143 144 145 145 146 146 145 145 144 143 143 144 144 151 159 158 156 162 168 170 171 174 175 174 172 171 176 181 181 186 198 203 201 198 199 199 198 198 200 203 201 200 206 210 210 213 205 161 134 123 109 304 292 295 300 301 298 301 307 308 305 303 305 305 301 298 300 303 306 308 309 310 312 313 313 314 316 319 321 321 318 316 314 312
144 143 145 148 148 147 148 148 148 148 145 141 139 136 141 153 160 162 165 169 174 180 180 180 182 181 176 175 181 183 185 190 191 185 181 183 185 184 184 183 183 179 174 173 170 157 149 149 162 186 207 233 250 246 259 283 288 285 289 297 305 306 305 300 291 290 295 302 308 309 309 311 312 315 317 316 315 317 318 319 319 318 316 315 315
147 148 150 152 152 150 149 149 149 147 145 143 139 132 125 126 134 147 158 162 166 174 178 179 182 183 180 172 169 174 179 177 172 171 172 171 171 170 167 163 162 160 159 159 158 162 175 188 197 200 200 200 209 228 246 260 259 260 272 282 293 303 300 289 290 300 308 314 313 309 309 312 314 316 319 319 318 319 321 321 321 320 319 319 317
151 152 153 154 153 153 152 150 149 147 145 143 141 135 126 116 109 110 123 136 143 147 154 159 162 165 171 170 162 156 157 160 163 165 163 159 158 156 151 150 154 158 164 171 173 178 188 191 184 184 195 195 195 214 234 241 242 250 265 275 278 281 284 289 300 311 319 317 310 310 312 312 313 316 319 320 321 322 324 324 325 323 320 319 317
156 156 156 155 154 155 155 153 152 151 148 145 143 141 135 128 120 114 112 113 117 121 127 138 145 148 151 157 158 153 148 147 148 149 147 145 144 145 146 151 158 163 166 169 173 179 187 190 193 206 218 214 204 205 218 233 247 259 269 274 277 280 286 297 311 320 319 313 314 317 315 312 315 320 322 322 322 322 323 323 324 323 322 320 319
162 161 160 158 157 158 159 158 157 155 154 151 148 145 141 138 134 129 123 119 114 109 110 117 127 134 134 133 134 135 135 135 137 138 139 141 147 156 162 167 176 185 185 180 178 180 186 193 198 207 211 207 207 214 222 236 252 265 274 278 282 289 297 309 320 318 312 316 323 322 315 314 318 320 320 320 321 320 321 322 321 321 321 319 318
164 163 163 163 162 161 162 162 161 159 157 154 152 149 146 143 140 137 135 132 126 120 116 115 118 124 127 128 130 135 138 142 146 149 152 157 163 171 175 174 178 190 194 191 188 188 192 196 199 205 211 214 218 226 236 249 261 269 276 280 285 292 300 311 314 307 308 318 323 316 310 312 318 319 316 317 318 317 317 318 317 316 317 316 316
166 164 164 165 166 164 164 164 163 162 160 157 156 155 151 148 145 143 141 137 134 131 129 127 129 133 133 133 139 148 156 162 166 170 174 177 177 176 172 169 174 184 190 195 198 200 204 209 211 216 224 230 237 245 252 260 267 271 275 280 285 289 294 302 302 298 302 311 312 307 306 309 316 321 318 315 315 313 312 312 312 312 312 313 314
168 167 166 167 168 167 166 165 165 164 162 162 161 158 153 151 151 149 146 143 142 141 140 140 142 143 141 139 144 156 165 172 174 173 173 173 172 171 170 171 181 191 196 201 207 210 215 221 226 232 238 244 250 255 257 261 266 270 272 276 281 285 288 292 291 290 295 301 301 302 306 309 314 318 315 311 311 311 309 310 311 311 312 313 314
170 170 170 169 169 168 167 165 165 166 165 164 163 160 155 154 155 154 151 150 151 150 149 150 152 153 152 153 159 165 167 167 165 163 165 170 173 176 179 183 191 199 205 209 213 219 226 232 238 243 248 251 254 257 259 260 262 266 269 271 277 282 283 283 284 284 289 294 295 296 301 305 307 306 303 302 304 305 306 307 309 310 312 314 314
169 170 172 171 170 171 170 168 168 168 167 166 165 164 161 159 158 158 156 156 157 158 158 159 161 164 167 170 174 175 171 168 171 172 173 177 180 182 187 193 199 206 212 216 220 226 233 239 244 249 251 253 253 253 255 256 258 262 266 268 271 275 276 276 279 282 284 288 291 292 294 297 298 298 298 298 298 299 301 304 306 307 306 307 309
170 171 172 173 173 173 172 171 171 171 170 169 169 169 168 165 164 165 165 164 165 166 167 167 170 176 180 182 183 180 176 176 182 184 182 183 188 190 195 202 207 212 218 222 225 230 237 241 245 248 248 249 250 250 252 255 257 259 263 265 266 268 270 271 273 277 279 281 284 287 290 292 293 294 295 295 293 292 295 300 302 302 298 298 301
172 171 171 174 175 174 173 173 173 174 175 174 172 172 172 171 170 171 171 171 170 170 171 173 178 182 184 186 187 187 188 191 192 192 190 191 195 199 204 209 213 216 220 224 227 232 236 240 243 245 246 247 249 250 251 254 256 258 260 263 264 265 267 268 270 273 275 276 280 283 286 288 288 289 292 292 289 289 293 296 296 296 294 294 297
174 172 171 173 174 173 172 172 173 174 175 176 176 176 176 176 175 174 173 173 173 172 172 175 180 181 181 185 190 195 200 203 199 197 198 200 203 207 211 213 217 220 223 228 231 233 236 239 240 243 245 246 249 251 253 255 258 259 260 262 264 265 267 269 270 272 272 273 276 279 282 283 284 285 287 288 287 289 292 294 294 293 293 294 296
174 172 170 169 170 171 171 171 171 172 174 175 176 177 178 177 177 176 176 175 175 175 175 176 178 177 176 183 195 201 202 203 202 202 205 207 209 213 215 217 220 224 227 231 235 236 237 240 241 243 247 249 250 253 256 257 259 261 263 264 266 268 268 268 269 270 271 272 274 277 279 281 282 283 283 283 284 286 289 291 293 293 291 291 294
172 169 167 166 167 169 170 170 171 172 173 174 175 176 177 178 177 177 177 176 176 177 178 179 179 179 179 186 196 198 197 200 204 207 210 212 215 218 221 223 227 229 231 235 238 239 240 243 245 247 250 251 252 255 258 260 262 263 265 266 268 269 269 269 269 268 268 270 273 275 277 279 280 281 282 282 281 283 287 291 292 290 288 289 290
169 167 165 165 165 167 168 169 171 172 172 172 172 171 173 175 175 175 175 175 176 178 181 183 185 187 189 193 196 196 197 204 209 210 214 218 221 224 228 231 234 236 238 240 242 244 246 248 250 252 254 255 257 258 260 262 263 264 264 266 268 270 272 272 270 268 267 269 271 272 274 275 277 277 279 279 278 278 283 286 284 283 285 287 289
169 168 167 166 166 167 168 169 170 170 170 170 169 167 168 171 171 172 174 176 178 181 184 187 191 194 196 198 201 204 209 214 215 216 221 225 227 231 237 240 241 243 246 248 249 250 252 253 255 258 259 260 261 262 262 263 264 265 265 266 268 270 272 272 271 269 268 268 269 270 270 272 273 274 275 276 275 275 277 278 278 280 284 285 287
169 168 168 167 167 166 167 167 167 166 166 167 167 165 165 167 168 171 174 177 181 185 188 191 195 200 204 207 211 216 219 220 222 225 229 232 234 239 243 246 249 251 253 254 255 256 258 259 261 263 264 264 265 265 264 264 264 264 265 266 268 270 271 271 270 269 268 267 268 269 269 269 271 271 272 273 273 273 275 277 278 282 285 284 285
168 167 167 168 167 165 164 163 163 163 163 163 163 164 164 166 168 171 175 179 183 188 193 197 201 206 211 215 218 221 224 226 230 234 236 238 241 244 247 250 254 256 257 259 260 261 263 265 266 267 267 267 268 268 266 265 264 264 265 266 268 269 270 269 268 267 267 267 268 268 267 267 267 267 268 269 268 269 271 273 274 278 280 280 283
167 167 166 166 165 162 161 161 161 161 161 161 162 162 164 166 171 175 179 185 190 195 200 205 209 213 217 221 224 227 231 235 238 242 243 245 247 250 252 255 257 259 261 262 263 264 266 267 268 270 270 270 270 269 268 266 265 263 264 266 267 269 269 267 266 266 266 266 266 266 265 266 266 265 264 263 263 264 266 267 270 275 276 278 283
164 163 162 161 159 158 158 158 158 159 160 161 163 164 167 172 178 183 189 194 199 203 207 212 216 220 225 229 232 236 240 243 246 249 251 253 255 257 258 260 262 263 265 266 266 267 268 269 269 271 272 272 271 270 268 267 266 265 265 266 267 267 266 265 265 265 264 264 264 265 264 264 264 262 261 260 259 260 262 263 266 270 274 276 282
155 155 155 154 153 153 153 153 154 156 159 162 165 170 175 182 189 195 200 204 208 212 217 222 226 231 236 239 242 246 249 252 255 258 259 261 264 265 266 267 267 268 269 270 270 270 271 271 272 272 272 272 271 270 268 267 266 265 266 266 266 265 265 264 263 262 262 261 262 263 262 262 262 260 259 259 259 261 264 266 266 268 272 274 278
Height
765 767 768 770 772 774 776 777 778 779 780 782 783 785 788 791 793 795 797 798 800 802 803 805 806 807 809 810 811 813 815 816 818 819 821 824 826 827 830 832 835 836 838 841 843 846 849 851 854 856 857 859 861 863 865 867 869 871 873 875 876 878 880 881 882 882 881 880 880 880 879 879 879 879 878 877 876 876 875 874 873 872 870 869 868
764 765 767 768 770 771 773 774 775 776 778 779 780 782 784 787 789 792 794 796 798 799 801 803 804 805 806 808 809 811 812 814 816 817 818 821 823 825 828 831 833 835 837 839 842 845 848 850 853 854 856 858 860 862 865 867 869 871 873 874 876 878 880 881 882 881 881 880 879 878 878 878 877 876 876 875 874 873 872 871 870 868 867 866 865
762 764 765 767 769 770 770 772 773 774 776 777 778 780 782 784 786 788 790 793 795 797 799 800 802 803 805 806 807 809 810 812 815 816 817 818 820 823 827 830 831 833 835 838 841 844 847 849 851 853 855 858 860 862 864 866 868 870 872 874 876 878 879 880 881 881 880 880 879 877 876 875 874 874 874 873 872 871 870 868 867 865 864 863 861
759 760 762 764 766 767 768 769 771 772 773 775 776 778 780 782 784 786 788 790 792 794 796 797 799 801 803 804 806 807 809 811 813 815 816 816 817 820 825 828 829 831 833 836 839 842 845 847 849 852 854 857 859 862 864 865 867 869 871 873 875 876 878 879 880 880 880 878 877 876 875 874 872 872 871 870 869 868 867 865 864 862 860 859 858
755 756 758 761 763 764 765 766 768 769 771 772 775 777 778 780 782 784 786 788 789 791 793 794 796 798 800 801 803 806 807 809 811 813 814 815 816 818 822 825 828 830 832 835 838 840 843 845 848 851 853 856 859 861 862 864 866 868 871 872 874 875 876 877 878 878 878 877 875 875 874 872 871 870 869 868 867 865 864 862 860 859 857 856 854
751 752 754 758 760 761 761 762 764 766 768 770 772 774 776 778 780 782 784 785 787 788 790 791 793 795 797 799 801 803 805 807 809 811 813 814 815 817 820 824 826 829 832 834 837 839 841 843 846 849 852 855 857 859 861 863 865 867 869 870 872 873 874 875 876 876 876 875 873 872 871 870 869 867 867 866 864 863 861 859 857 856 854 852 850
748 749 751 754 756 757 758 759 761 763 765 767 770 772 773 775 777 779 782 783 785 786 787 789 791 793 795 797 798 801 803 805 807 809 811 813 814 816 818 822 825 828 831 834 836 838 840 843 845 848 851 853 855 857 859 862 864 865 867 868 870 871 872 873 874 874 874 873 871 870 868 867 867 865 864 864 862 860 858 856 854 853 852 850 848
746 745 748 750 752 753 755 757 758 760 763 765 767 769 771 773 775 777 780 781 782 783 785 787 789 791 793 795 797 799 801 803 805 807 809 812 813 815 817 820 823 827 830 833 835 837 839 842 845 847 850 852 854 856 858 860 862 864 865 866 868 869 870 871 871 872 871 870 869 867 866 865 864 863 863 862 860 857 856 854 851 849 849 847 845
744 743 744 746 748 750 753 755 756 758 760 762 764 766 768 771 773 775 777 779 780 782 783 785 787 789 791 793 795 797 799 801 803 805 806 809 811 813 815 818 821 825 828 831 833 836 839 841 844 846 849 851 853 855 857 859 860 862 863 865 866 867 868 868 869 869 869 867 866 864 864 863 862 861 860 859 857 854 853 852 849 847 846 844 842
742 740 741 742 745 748 750 752 754 756 758 760 762 764 766 769 771 773 775 777 778 780 782 784 786 788 790 792 794 796 798 800 801 803 805 807 809 812 814 817 820 823 825 829 832 835 838 840 843 845 847 850 852 853 855 857 859 860 862 863 864 865 865 866 866 866 866 864 862 862 862 860 859 859 857 855 854 852 850 849 847 845 844 841 838
739 737 738 740 742 745 747 749 751 753 755 757 759 761 764 766 769 771 773 775 777 778 780 782 784 786 789 791 792 794 796 798 800 803 805 806 808 810 812 814 818 821 824 827 830 833 836 839 841 844 846 849 851 853 855 856 857 859 860 861 862 862 863 863 863 863 863 861 860 860 860 857 854 854 854 852 851 850 848 847 845 843 842 839 835
735 735 736 738 740 741 743 745 748 750 752 755 757 759 762 764 767 769 771 773 775 777 779 781 782 784 787 789 791 793 795 797 799 802 804 806 808 809 810 813 816 820 823 826 828 831 834 837 840 842 845 848 850 852 853 855 856 857 858 858 859 860 860 860 860 860 860 859 857 857 856 854 851 849 850 850 848 847 846 844 843 841 839 838 834
732 732 734 736 737 739 741 743 745 747 750 752 755 758 760 762 765 767 770 772 774 776 778 780 781 783 785 787 789 791 794 796 797 800 803 805 807 809 810 812 815 818 821 824 827 830 832 835 838 841 845 847 849 851 852 853 854 854 855 856 856 856 857 857 857 857 856 856 855 852 851 851 849 846 847 848 846 845 843 842 841 839 837 835 832
729 729 732 734 735 737 739 741 744 746 748 750 753 756 758 761 763 766 768 770 772 774 776 778 780 782 784 786 788 790 792 794 796 799 801 804 807 809 811 812 814 817 820 823 826 828 831 834 837 841 843 845 847 849 850 850 851 852 852 852 852 852 853 853 853 853 853 853 852 847 845 847 846 844 844 846 845 843 841 839 838 836 834 832 829
726 727 729 731 733 735 737 740 743 745 747 749 751 754 757 759 762 764 766 769 771 773 775 777 779 781 783 785 787 789 791 793 795 798 801 804 806 809 811 813 814 816 819 823 825 828 831 834 837 839 841 843 845 846 847 848 849 849 849 849 849 849 849 849 850 850 850 850 848 845 843 843 843 842 841 842 841 840 838 836 834 833 831 828 825
723 725 727 729 731 733 735 738 741 743 745 748 750 753 755 758 760 763 765 768 770 772 775 777 779 781 782 784 787 789 791 793 795 798 801 803 806 808 811 813 815 817 820 823 825 828 831 833 836 838 840 841 843 844 845 845 846 846 846 845 845 845 844 845 846 847 847 846 844 843 841 840 840 839 838 838 837 836 835 832 830 829 827 824 821
721 723 725 727 729 731 733 737 739 742 744 747 749 752 754 757 759 761 764 767 770 772 774 776 778 780 782 784 786 788 790 792 795 797 800 802 805 808 811 813 815 817 820 823 825 828 830 832 834 836 837 839 840 841 842 843 843 843 843 842 842 841 840 842 843 842 842 841 840 839 837 836 836 835 835 835 834 834 832 829 827 826 824 821 817
719 722 724 725 727 730 732 735 738 741 743 746 748 751 753 756 758 761 763 766 769 772 774 776 778 779 781 784 785 787 790 791 794 796 798 801 804 807 810 812 815 818 820 822 825 827 829 831 832 834 835 837 838 839 840 840 840 840 841 840 838 837 837 839 839 838 838 837 835 834 833 832 831 831 830 830 830 830 829 826 824 823 821 818 815
718 720 722 724 726 729 731 734 737 740 742 745 747 750 752 755 757 760 763 766 769 771 773 775 777 779 781 783 785 787 789 791 794 796 797 800 803 806 809 812 815 817 819 822 824 826 827 829 830 831 833 834 835 836 837 838 837 837 838 838 836 834 835 837 836 835 834 833 831 831 829 828 828 827 826 825 825 825 824 822 821 820 817 815 813
717 720 721 723 726 728 731 734 736 739 742 744 747 749 752 755 758 760 763 766 768 771 773 775 777 779 781 783 784 786 788 790 793 795 796 799 802 805 808 811 813 816 818 820 822 824 825 826 828 829 830 831 832 833 834 834 834 835 836 835 834 833 833 834 833 832 831 829 829 828 826 825 825 823 822 821 820 820 819 818 818 817 815 813 811
717 719 721 723 726 728 731 734 736 739 742 744 746 749 752 755 758 760 763 766 768 771 773 775 777 779 781 783 784 786 788 790 792 794 796 798 801 803 806 809 811 814 816 818 820 822 823 824 825 827 828 829 830 830 831 832 833 833 833 833 833 832 832 831 830 830 829 827 826 825 823 822 821 819 818 817 816 815 815 814 814 813 812 811 809
716 718 720 723 726 728 731 734 736 739 741 744 746 750 752 755 758 760 763 765 768 771 773 775 777 779 780 782 784 786 788 790 792 794 796 798 800 802 805 807 810 812 814 816 818 819 821 822 823 824 825 826 827 828 829 830 831 831 832 832 831 831 831 830 828 828 827 826 824 823 822 820 819 817 816 814 813 812 811 810 810 810 809 808 807
715 717 720 723 725 728 731 733 736 738 741 744 746 749 752 755 758 760 762 765 768 771 773 775 777 778 780 782 784 786 788 790 792 794 796 798 800 802 804 807 809 811 813 815 816 818 819 820 821 822 823 824 825 826 827 828 829 829 829 829 829 829 828 827 827 826 825 824 823 822 820 820 818 816 815 813 812 811 810 809 808 807 806 805 804
715 718 720 723 725 728 731 733 736 738 740 743 746 749 752 754 757 760 762 765 768 770 773 775 776 778 779 781 783 785 788 790 791 794 796 798 800 802 804 806 808 810 812 813 815 816 817 818 819 820 821 822 823 824 825 826 826 826 827 827 826 826 826 825 825 825 824 823 822 821 819 819 817 816 814 812 811 810 808 807 806 804 803 802 801
715 718 721 723 726 728 731 734 736 738 740 743 745 748 751 754 756 760 762 765 767 770 772 774 776 777 779 781 783 785 787 789 791 793 795 797 799 801 803 805 807 809 810 812 813 814 816 816 817 818 819 820 821 822 823 823 824 824 824 824 824 824 824 824 824 824 823 822 821 820 819 818 817 815 813 811 809 808 806 805 803 802 800 798 797
716 719 721 724 726 729 731 734 737 739 742 744 746 748 751 754 757 760 762 765 767 769 771 773 775 777 779 781 782 784 786 788 790 792 794 796 798 800 802 804 806 807 808 810 811 812 814 815 816 817 818 819 819 820 821 821 822 822 822 823 823 823 823 823 823 823 823 822 821 820 818 817 815 814 812 810 808 807 805 803 801 799 798 796 794
716 719 722 725 727 730 732 735 738 741 743 745 747 750 753 755 757 760 762 765 767 769 771 772 774 776 778 780 782 783 785 787 789 791 793 794 796 798 800 802 803 805 806 808 809 811 812 813 814 815 816 817 818 819 819 820 821 821 821 822 822 822 823 823 823 823 822 822 820 819 818 816 814 813 811 809 807 806 805 803 800 798 797 795 792
717 720 723 725 728 730 733 735 738 741 744 747 749 752 754 756 758 760 762 764 766 768 770 772 774 776 778 779 781 782 784 786 788 789 791 793 795 797 798 800 802 803 805 806 808 809 810 812 813 814 815 816 818 818 819 820 820 820 820 820 821 821 821 822 822 822 821 821 820 818 817 815 813 812 810 808 807 805 804 802 800 798 796 794 792
718 720 723 725 728 730 733 736 739 741 744 747 749 752 754 756 758 760 763 764 766 768 770 772 774 776 777 779 780 782 784 785 787 789 791 793 795 796 798 799 801 802 804 805 806 808 810 811 813 814 815 816 817 818 818 819 819 819 819 819 819 820 820 820 820 820 820 819 818 817 816 814 812 811 809 807 806 805 803 802 800 798 796 794 792
719 721 723 726 728 730 733 736 739 741 743 746 749 752 754 757 759 761 763 765 767 768 770 772 774 775 777 779 780 782 783 785 787 789 791 793 795 796 797 799 800 801 803 804 806 808 809 811 812 813 814 815 816 817 817 817 817 818 818 818 818 819 819 819 819 818 818 817 817 816 815 813 811 810 808 807 805 804 803 802 800 798 796 794 792
719 721 723 726 728 730 733 736 739 741 744 746 748 751 754 757 760 762 764 765 767 769 770 772 774 776 777 779 781 783 784 786 788 789 791 792 794 795 797 798 800 801 803 804 806 808 809 810 811 812 813 814 814 815 815 816 816 816 816 817 817 817 817 817 817 816 816 816 815 814 813 812 811 809 808 807 805 803 802 801 800 798 796 795 793
718 721 723 726 729 731 734 736 738 741 744 746 749 751 753 757 760 763 765 766 767 769 771 773 774 776 778 780 781 783 785 786 788 789 791 792 793 795 796 798 799 801 803 804 805 807 807 808 810 810 811 812 813 813 814 814 814 815 815 815 816 816 815 815 815 814 814 814 813 813 812 811 809 808 807 806 804 803 802 800 799 798 796 795 793
719 721 723 725 728 731 734 736 739 741 744 746 749 751 753 755 759 762 765 767 768 770 771 773 775 777 778 780 782 783 785 787 788 789 791 792 794 795 796 798 799 801 802 803 804 805 806 807 808 809 810 810 811 812 812 812 813 813 813 814 814 814 813 813 813 813 812 812 812 811 810 809 808 807 806 805 804 803 801 800 799 797 796 794 793
719 721 723 725 728 730 733 736 738 741 744 746 748 751 753 755 757 760 763 766 768 771 773 774 776 777 779 781 783 784 786 787 788 790 791 793 794 795 796 797 798 799 800 801 802 803 804 805 806 807 808 809 809 810 810 810 811 811 811 811 811 811 811 811 811 811 811 810 810 809 808 808 807 806 805 804 803 802 801 800 798 797 795 794 792
719 722 724 726 728 730 733 736 738 741 744 747 749 751 753 756 758 760 762 764 767 770 773 775 777 779 780 782 783 784 785 787 788 789 791 792 793 794 795 796 797 798 799 799 800 802 803 804 805 805 806 806 807 808 808 808 809 809 809 809 809 809 809 809 809 809 809 809 808 808 807 806 805 805 804 803 802 801 800 799 798 796 795 794 792
719 721 724 726 728 731 734 736 739 741 744 747 749 751 753 756 758 761 763 765 767 769 772 774 777 779 780 782 783 784 785 786 787 789 790 791 792 793 794 795 796 796 797 798 799 800 801 802 803 804 804 804 805 805 806 806 807 807 807 807 807 808 808 807 807 807 807 807 807 806 805 804 804 803 802 801 801 800 799 798 797 796 794 793 791
718 720 722 725 728 731 734 736 739 742 744 746 749 751 753 756 759 761 763 765 767 769 772 774 776 778 779 781 782 783 784 785 786 788 789 790 791 792 792 793 794 795 796 797 798 798 799 800 801 802 802 803 803 804 804 805 805 805 805 805 806 806 806 806 805 805 805 805 805 804 804 803 802 801 801 800 799 798 798 797 795 794 793 792 791
719 720 722 725 727 730 733 736 739 742 744 746 749 751 753 756 759 761 763 765 767 769 772 773 775 777 778 780 781 782 783 784 785 787 788 789 790 790 791 792 793 794 795 795 796 797 797 798 799 800 801 802 802 802 803 803 803 803 803 804 804 804 804 804 804 803 803 803 803 802 802 801 800 800 799 798 798 797 796 795 794 793 792 791 790
719 721 723 725 728 730 733 735 738 741 744 746 749 751 753 755 758 760 762 764 767 769 771 773 775 776 777 778 780 781 782 783 784 785 786 787 788 789 790 791 792 793 793 794 795 795 796 797 798 799 800 800 801 802 802 802 802 802 802 802 802 802 802 802 802 801 801 801 801 801 800 799 798 798 797 796 796 795 794 793 792 791 790 789 788
719 722 724 726 729 731 733 735 738 740 743 745 747 750 752 754 756 759 761 763 765 768 770 772 773 775 776 777 778 780 781 782 783 784 785 786 787 788 789 790 791 791 792 793 793 794 794 795 796 797 798 800 800 801 801 801 800 800 800 800 800 801 801 800 800 799 799 799 799 798 798 797 796 796 795 795 794 793 792 791 790 790 789 788 786
719 722 725 727 729 731 734 736 738 740 742 744 746 749 751 753 755 757 759 762 764 767 769 771 772 773 775 776 777 779 779 780 781 783 784 785 786 786 787 788 789 790 790 791 791 792 793 794 795 796 797 798 799 799 799 799 799 798 798 798 798 799 799 798 798 797 797 797 797 796 796 795 794 794 793 792 792 791 791 790 789 788 787 786 785
719 721 724 727 730 732 734 736 738 740 742 744 746 748 750 752 754 757 759 761 764 766 768 770 771 772 774 776 777 778 778 779 781 782 782 783 784 785 786 786 787 788 788 789 789 790 791 792 793 795 796 797 797 798 798 798 797 797 796 796 796 797 797 796 796 795 795 795 794 794 793 793 792 792 791 790 790 789 788 788 787 786 786 784 783
720 722 724 727 730 732 734 736 738 740 742 744 746 748 750 752 754 756 758 760 762 764 766 768 769 771 773 775 776 776 778 779 780 780 781 782 783 783 784 785 785 786 787 787 788 789 790 791 792 793 794 795 795 796 796 796 795 795 795 794 794 795 794 794 793 793 793 792 792 792 791 790 790 789 789 788 787 787 786 786 785 785 784 783 782
721 723 725 727 730 732 734 736 738 740 742 744 746 747 749 751 753 755 757 759 761 763 765 766 768 770 772 774 774 775 777 778 779 779 780 780 781 782 783 783 784 785 785 786 787 787 788 789 790 791 791 792 793 793 794 794 793 793 793 792 792 792 792 792 791 791 790 790 790 789 789 788 787 787 786 786 785 785 784 783 783 783 782 781 780
722 724 726 728 730 733 735 737 739 741 742 744 746 747 749 751 753 755 757 758 760 762 764 765 767 769 771 772 773 775 776 777 777 778 779 779 780 781 781 782 783 783 784 785 786 786 787 787 788 788 789 790 790 790 791 791 791 791 790 790 789 790 790 790 789 789 788 788 787 787 787 786 785 785 784 784 783 783 782 781 781 781 780 779 779
723 725 727 729 731 733 736 738 740 741 743 744 746 747 749 751 753 754 756 758 760 762 764 765 767 769 770 772 773 774 775 776 776 777 777 778 779 779 780 781 781 782 782 783 784 784 785 785 786 786 786 787 787 787 788 788 788 788 787 787 787 787 787 787 787 786 786 785 785 785 784 784 783 783 782 782 781 780 780 779 778 778 778 777 776
725 727 729 730 732 734 737 739 741 742 744 745 747 748 750 751 753 755 756 758 760 762 764 766 767 769 770 771 772 773 774 774 775 775 776 777 777 778 779 779 779 780 781 781 782 782 783 783 783 783 784 784 784 784 785 785 785 785 784 784 784 784 784 785 784 783 783 783 783 782 782 781 781 781 780 780 779 778 777 777 776 776 775 775 775
726 728 730 732 734 736 737 739 741 743 745 747 748 749 750 752 753 755 757 759 761 763 764 766 767 769 770 770 771 772 772 772 773 774 774 775 776 777 777 777 778 778 778 779 779 780 780 780 780 781 781 780 781 781 781 782 782 781 781 781 781 781 782 781 781 780 780 780 780 780 779 779 779 778 778 777 777 776 775 775 774 774 773 773 772
728 730 732 734 735 736 738 740 742 744 746 748 749 750 751 753 755 756 758 760 761 763 764 766 767 768 769 769 770 770 771 771 771 772 773 774 774 775 775 775 776 776 776 776 777 777 777 778 778 778 777 777 777 778 778 778 778 778 778 778 778 778 778 778 778 777 777 777 777 777 777 776 776 776 776 775 775 774 773 773 772 772 771 771 770
730 732 733 735 736 737 739 740 742 744 746 748 749 751 753 754 756 758 759 761 762 763 764 765 766 767 767 768 768 769 769 770 770 771 771 772 772 773 773 773 773 773 773 774 774 774 775 775 775 774 774 774 774 774 775 775 775 775 775 775 775 775 775 775 774 774 774 774 774 774 774 774 774 773 773 773 773 772 771 771 770 770 769 769 768
732 733 735 736 737 738 740 741 743 745 747 749 751 752 754 756 757 759 760 761 762 763 763 764 765 765 766 766 767 768 768 769 769 769 770 770 770 770 771 771 771 771 771 771 771 771 772 772 771 771 771 771 771 771 771 771 772 772 771 771 771 772 771 771 771 771 771 771 771 771 771 771 771 771 771 771 771 770 769 769 768 768 767 767 766